QPF
0.01 0.02 0.02 0.02 0.01 0.01 0.01 0.01 0.00 0.00 0.01 0.01 0.01 0.01 0.01 0.01 0.02 0.02 0.02 0.02 0.03 0.02 0.02 0.02 0.03 0.04 0.04 0.05 0.04 0.03 0.03 0.03 0.03 0.04 0.06 0.05 0.05 0.06 0.09 0.10 0.08 0.06 0.06
0.01 0.01 0.02 0.01 0.01 0.01 0.01 0.01 0.01 0.00 0.01 0.01 0.01 0.00 0.01 0.01 0.02 0.02 0.02 0.02 0.03 0.04 0.04 0.02 0.03 0.04 0.05 0.04 0.05 0.04 0.03 0.03 0.04 0.07 0.08 0.06 0.06 0.06 0.08 0.08 0.06 0.05 0.05
0.01 0.01 0.01 0.02 0.02 0.02 0.01 0.01 0.01 0.01 0.01 0.01 0.01 0.00 0.00 0.01 0.02 0.02 0.02 0.02 0.02 0.04 0.05 0.04 0.04 0.04 0.05 0.06 0.05 0.05 0.04 0.03 0.04 0.07 0.07 0.03 0.04 0.07 0.07 0.07 0.07 0.06 0.05
0.00 0.01 0.01 0.04 0.04 0.02 0.01 0.01 0.01 0.01 0.01 0.01 0.01 0.01 0.00 0.00 0.01 0.02 0.02 0.02 0.02 0.03 0.05 0.07 0.07 0.06 0.06 0.06 0.07 0.06 0.06 0.05 0.05 0.06 0.03 0.02 0.02 0.06 0.06 0.06 0.06 0.05 0.05
0.00 0.01 0.02 0.03 0.02 0.02 0.02 0.01 0.02 0.02 0.02 0.02 0.02 0.01 0.01 0.01 0.01 0.01 0.01 0.02 0.02 0.02 0.04 0.08 0.10 0.09 0.09 0.08 0.08 0.07 0.08 0.07 0.06 0.04 0.02 0.01 0.02 0.05 0.05 0.04 0.04 0.04 0.05
0.00 0.00 0.01 0.03 0.03 0.03 0.03 0.02 0.03 0.03 0.03 0.02 0.02 0.02 0.01 0.01 0.01 0.01 0.01 0.02 0.02 0.03 0.04 0.07 0.10 0.13 0.12 0.11 0.10 0.09 0.08 0.08 0.07 0.05 0.03 0.02 0.03 0.05 0.05 0.04 0.04 0.04 0.04
0.00 0.01 0.01 0.03 0.03 0.04 0.03 0.03 0.03 0.03 0.03 0.02 0.02 0.02 0.01 0.01 0.01 0.01 0.01 0.02 0.02 0.02 0.03 0.05 0.09 0.13 0.15 0.15 0.15 0.14 0.14 0.10 0.07 0.05 0.04 0.03 0.03 0.06 0.06 0.05 0.05 0.06 0.05
0.01 0.01 0.04 0.06 0.04 0.05 0.04 0.03 0.03 0.03 0.03 0.03 0.02 0.02 0.01 0.01 0.01 0.01 0.01 0.01 0.01 0.01 0.03 0.05 0.06 0.10 0.15 0.19 0.22 0.21 0.19 0.16 0.10 0.07 0.05 0.04 0.05 0.07 0.06 0.05 0.07 0.09 0.07
0.04 0.03 0.04 0.05 0.04 0.04 0.05 0.03 0.03 0.03 0.03 0.03 0.03 0.02 0.02 0.01 0.02 0.01 0.01 0.01 0.02 0.02 0.03 0.04 0.05 0.05 0.08 0.14 0.19 0.18 0.17 0.19 0.15 0.08 0.06 0.06 0.06 0.07 0.08 0.06 0.11 0.11 0.08
0.06 0.03 0.03 0.03 0.03 0.04 0.06 0.03 0.03 0.03 0.03 0.03 0.04 0.03 0.03 0.03 0.02 0.02 0.02 0.02 0.02 0.03 0.03 0.04 0.05 0.04 0.03 0.05 0.08 0.11 0.11 0.17 0.19 0.11 0.08 0.07 0.07 0.09 0.10 0.09 0.14 0.15 0.11
0.06 0.05 0.04 0.03 0.04 0.05 0.08 0.05 0.03 0.03 0.03 0.04 0.04 0.05 0.04 0.04 0.03 0.03 0.03 0.03 0.03 0.04 0.03 0.04 0.04 0.03 0.03 0.03 0.04 0.06 0.08 0.08 0.14 0.14 0.10 0.08 0.08 0.08 0.08 0.09 0.14 0.17 0.13
0.05 0.07 0.06 0.05 0.05 0.06 0.09 0.05 0.03 0.02 0.02 0.02 0.03 0.05 0.06 0.06 0.06 0.06 0.06 0.06 0.05 0.05 0.04 0.04 0.04 0.04 0.03 0.03 0.03 0.04 0.03 0.03 0.05 0.08 0.08 0.08 0.07 0.07 0.07 0.05 0.11 0.18 0.12
0.05 0.07 0.07 0.07 0.07 0.08 0.08 0.05 0.03 0.03 0.03 0.03 0.03 0.05 0.08 0.07 0.07 0.08 0.08 0.08 0.07 0.05 0.03 0.03 0.03 0.02 0.03 0.03 0.02 0.02 0.02 0.03 0.03 0.03 0.04 0.05 0.07 0.08 0.08 0.07 0.09 0.16 0.11
0.04 0.05 0.06 0.07 0.07 0.11 0.09 0.06 0.05 0.05 0.05 0.05 0.05 0.06 0.10 0.06 0.04 0.06 0.07 0.08 0.09 0.07 0.03 0.02 0.03 0.04 0.05 0.04 0.03 0.02 0.02 0.03 0.03 0.04 0.04 0.04 0.05 0.08 0.09 0.09 0.09 0.13 0.11
0.05 0.04 0.04 0.04 0.06 0.11 0.11 0.08 0.06 0.05 0.07 0.07 0.07 0.08 0.08 0.04 0.04 0.05 0.06 0.07 0.10 0.09 0.05 0.03 0.03 0.06 0.05 0.04 0.04 0.02 0.02 0.02 0.03 0.04 0.03 0.03 0.04 0.07 0.09 0.11 0.09 0.11 0.12
0.07 0.05 0.05 0.06 0.06 0.07 0.08 0.06 0.05 0.05 0.08 0.11 0.10 0.10 0.09 0.06 0.06 0.05 0.05 0.06 0.08 0.07 0.04 0.03 0.03 0.05 0.05 0.05 0.04 0.03 0.03 0.03 0.04 0.04 0.02 0.03 0.04 0.06 0.08 0.11 0.09 0.09 0.12
0.09 0.06 0.07 0.09 0.08 0.06 0.04 0.04 0.03 0.06 0.12 0.16 0.14 0.11 0.10 0.08 0.06 0.04 0.05 0.06 0.06 0.05 0.03 0.02 0.02 0.03 0.05 0.06 0.05 0.03 0.03 0.03 0.03 0.03 0.03 0.03 0.04 0.06 0.08 0.09 0.09 0.08 0.11
0.06 0.06 0.07 0.08 0.10 0.08 0.06 0.06 0.06 0.07 0.11 0.12 0.15 0.17 0.13 0.10 0.07 0.07 0.06 0.06 0.05 0.05 0.03 0.02 0.02 0.03 0.04 0.05 0.04 0.03 0.03 0.03 0.03 0.03 0.03 0.04 0.04 0.04 0.06 0.08 0.09 0.10 0.11
0.03 0.03 0.05 0.06 0.08 0.09 0.09 0.11 0.11 0.10 0.08 0.08 0.09 0.15 0.17 0.13 0.08 0.08 0.08 0.07 0.06 0.04 0.03 0.02 0.03 0.03 0.03 0.03 0.03 0.03 0.03 0.03 0.03 0.04 0.04 0.04 0.05 0.04 0.04 0.07 0.09 0.09 0.10
0.03 0.03 0.03 0.04 0.05 0.05 0.06 0.07 0.08 0.08 0.07 0.07 0.08 0.09 0.13 0.13 0.10 0.11 0.11 0.08 0.07 0.05 0.04 0.04 0.02 0.02 0.02 0.03 0.02 0.02 0.02 0.02 0.03 0.03 0.04 0.05 0.06 0.06 0.06 0.05 0.06 0.07 0.08
0.05 0.05 0.06 0.04 0.04 0.03 0.04 0.04 0.05 0.06 0.06 0.04 0.04 0.05 0.06 0.08 0.09 0.11 0.15 0.10 0.07 0.06 0.05 0.04 0.03 0.03 0.03 0.03 0.03 0.03 0.02 0.02 0.02 0.03 0.03 0.04 0.05 0.06 0.07 0.07 0.06 0.06 0.07
0.05 0.08 0.12 0.09 0.06 0.05 0.05 0.05 0.06 0.06 0.05 0.04 0.03 0.04 0.04 0.06 0.07 0.09 0.16 0.14 0.08 0.06 0.05 0.04 0.03 0.03 0.03 0.03 0.04 0.04 0.03 0.03 0.02 0.02 0.02 0.02 0.03 0.06 0.07 0.08 0.07 0.06 0.06
0.06 0.10 0.11 0.09 0.07 0.05 0.05 0.05 0.05 0.06 0.06 0.05 0.04 0.03 0.03 0.05 0.06 0.08 0.09 0.13 0.11 0.07 0.05 0.04 0.02 0.02 0.03 0.03 0.03 0.04 0.04 0.03 0.02 0.02 0.02 0.02 0.03 0.04 0.06 0.08 0.09 0.08 0.06
0.02 0.04 0.04 0.03 0.03 0.03 0.04 0.05 0.04 0.04 0.06 0.07 0.06 0.03 0.03 0.04 0.05 0.05 0.05 0.07 0.09 0.07 0.04 0.03 0.02 0.02 0.02 0.01 0.01 0.02 0.03 0.03 0.02 0.02 0.01 0.02 0.03 0.04 0.05 0.07 0.08 0.09 0.07
0.02 0.03 0.02 0.01 0.01 0.02 0.03 0.05 0.04 0.05 0.08 0.07 0.07 0.04 0.02 0.03 0.04 0.04 0.03 0.03 0.05 0.05 0.04 0.03 0.01 0.01 0.01 0.01 0.01 0.01 0.02 0.02 0.02 0.02 0.01 0.01 0.02 0.03 0.04 0.05 0.08 0.09 0.08
0.02 0.02 0.02 0.01 0.01 0.02 0.03 0.04 0.04 0.04 0.06 0.06 0.05 0.04 0.02 0.02 0.03 0.04 0.02 0.02 0.02 0.03 0.03 0.02 0.02 0.01 0.01 0.01 0.01 0.01 0.01 0.02 0.02 0.02 0.02 0.02 0.03 0.03 0.04 0.04 0.05 0.07 0.08
MSLP
1011.07 1010.72 1010.60 1010.73 1011.03 1011.41 1011.77 1012.05 1012.20 1012.25 1012.25 1012.29 1012.42 1012.69 1013.09 1013.59 1014.13 1014.63 1015.04 1015.34 1015.54 1015.66 1015.76 1015.86 1016.00 1016.19 1016.39 1016.58 1016.73 1016.82 1016.84 1016.82 1016.77 1016.73 1016.71 1016.72 1016.75 1016.79 1016.83 1016.84 1016.84 1016.82 1016.81
1010.85 1010.57 1010.51 1010.68 1011.01 1011.42 1011.80 1012.10 1012.28 1012.37 1012.43 1012.52 1012.70 1013.01 1013.43 1013.93 1014.45 1014.92 1015.29 1015.56 1015.73 1015.84 1015.94 1016.06 1016.21 1016.38 1016.57 1016.72 1016.82 1016.86 1016.84 1016.78 1016.71 1016.67 1016.66 1016.69 1016.75 1016.81 1016.86 1016.89 1016.89 1016.88 1016.89
1010.52 1010.33 1010.35 1010.58 1010.96 1011.40 1011.82 1012.16 1012.39 1012.54 1012.65 1012.79 1013.02 1013.35 1013.77 1014.24 1014.71 1015.12 1015.44 1015.67 1015.81 1015.92 1016.03 1016.16 1016.31 1016.49 1016.66 1016.78 1016.84 1016.84 1016.79 1016.71 1016.65 1016.62 1016.65 1016.71 1016.79 1016.87 1016.93 1016.96 1016.97 1016.98 1017.01
1010.14 1010.05 1010.15 1010.45 1010.89 1011.38 1011.85 1012.23 1012.51 1012.71 1012.87 1013.06 1013.31 1013.65 1014.05 1014.48 1014.89 1015.24 1015.50 1015.68 1015.81 1015.92 1016.04 1016.19 1016.37 1016.54 1016.70 1016.80 1016.84 1016.81 1016.75 1016.68 1016.64 1016.65 1016.71 1016.81 1016.91 1017.01 1017.06 1017.09 1017.09 1017.10 1017.14
1009.80 1009.79 1009.98 1010.35 1010.84 1011.38 1011.88 1012.29 1012.61 1012.84 1013.05 1013.27 1013.54 1013.87 1014.25 1014.63 1014.99 1015.28 1015.50 1015.65 1015.78 1015.90 1016.04 1016.22 1016.41 1016.60 1016.75 1016.84 1016.86 1016.83 1016.77 1016.73 1016.72 1016.78 1016.88 1017.00 1017.13 1017.22 1017.26 1017.26 1017.24 1017.24 1017.28
1009.59 1009.65 1009.90 1010.33 1010.86 1011.41 1011.92 1012.34 1012.67 1012.92 1013.15 1013.39 1013.67 1014.00 1014.36 1014.71 1015.03 1015.29 1015.48 1015.62 1015.75 1015.90 1016.07 1016.28 1016.50 1016.70 1016.85 1016.94 1016.96 1016.93 1016.89 1016.88 1016.91 1017.01 1017.15 1017.30 1017.42 1017.49 1017.51 1017.47 1017.41 1017.38 1017.40
1009.58 1009.68 1009.97 1010.42 1010.95 1011.49 1011.97 1012.37 1012.68 1012.93 1013.16 1013.42 1013.71 1014.05 1014.41 1014.75 1015.05 1015.29 1015.48 1015.63 1015.79 1015.96 1016.17 1016.41 1016.65 1016.86 1017.02 1017.10 1017.12 1017.11 1017.09 1017.11 1017.19 1017.32 1017.49 1017.65 1017.77 1017.82 1017.79 1017.70 1017.59 1017.52 1017.51
1009.78 1009.90 1010.21 1010.65 1011.15 1011.63 1012.06 1012.40 1012.67 1012.89 1013.12 1013.38 1013.69 1014.05 1014.42 1014.78 1015.08 1015.33 1015.53 1015.70 1015.88 1016.08 1016.32 1016.58 1016.84 1017.06 1017.22 1017.31 1017.34 1017.33 1017.34 1017.39 1017.50 1017.66 1017.85 1018.02 1018.13 1018.15 1018.08 1017.95 1017.79 1017.67 1017.62
1010.15 1010.29 1010.59 1010.99 1011.43 1011.84 1012.18 1012.44 1012.64 1012.83 1013.04 1013.31 1013.65 1014.03 1014.44 1014.82 1015.15 1015.41 1015.62 1015.81 1016.00 1016.22 1016.48 1016.75 1017.02 1017.26 1017.42 1017.51 1017.55 1017.56 1017.59 1017.66 1017.79 1017.98 1018.18 1018.35 1018.46 1018.46 1018.37 1018.20 1018.01 1017.84 1017.75
1010.62 1010.77 1011.04 1011.40 1011.76 1012.08 1012.32 1012.50 1012.63 1012.77 1012.97 1013.25 1013.61 1014.03 1014.47 1014.88 1015.23 1015.51 1015.74 1015.93 1016.13 1016.35 1016.60 1016.88 1017.15 1017.39 1017.56 1017.66 1017.71 1017.74 1017.78 1017.88 1018.03 1018.23 1018.44 1018.62 1018.72 1018.73 1018.63 1018.45 1018.24 1018.06 1017.94
1011.09 1011.24 1011.50 1011.81 1012.09 1012.32 1012.47 1012.56 1012.63 1012.73 1012.92 1013.21 1013.60 1014.05 1014.51 1014.95 1015.32 1015.61 1015.83 1016.02 1016.20 1016.41 1016.65 1016.92 1017.19 1017.43 1017.61 1017.73 1017.80 1017.85 1017.91 1018.02 1018.18 1018.39 1018.61 1018.80 1018.92 1018.94 1018.85 1018.70 1018.50 1018.32 1018.20
1011.45 1011.63 1011.88 1012.14 1012.37 1012.52 1012.59 1012.61 1012.64 1012.71 1012.89 1013.19 1013.60 1014.07 1014.56 1015.01 1015.38 1015.67 1015.88 1016.04 1016.20 1016.39 1016.61 1016.87 1017.13 1017.37 1017.57 1017.72 1017.82 1017.89 1017.98 1018.10 1018.28 1018.49 1018.71 1018.91 1019.04 1019.09 1019.04 1018.93 1018.77 1018.62 1018.50
1011.65 1011.85 1012.10 1012.35 1012.53 1012.63 1012.65 1012.63 1012.62 1012.69 1012.86 1013.16 1013.58 1014.06 1014.56 1015.01 1015.38 1015.66 1015.85 1015.99 1016.13 1016.29 1016.50 1016.74 1017.00 1017.26 1017.48 1017.66 1017.79 1017.90 1018.02 1018.15 1018.32 1018.53 1018.75 1018.95 1019.10 1019.18 1019.19 1019.13 1019.03 1018.92 1018.83
1011.67 1011.90 1012.16 1012.39 1012.55 1012.63 1012.63 1012.59 1012.57 1012.62 1012.80 1013.10 1013.51 1013.99 1014.48 1014.92 1015.29 1015.55 1015.74 1015.87 1016.00 1016.15 1016.35 1016.59 1016.86 1017.13 1017.38 1017.60 1017.77 1017.92 1018.05 1018.20 1018.37 1018.56 1018.77 1018.96 1019.13 1019.23 1019.28 1019.28 1019.24 1019.19 1019.14
1011.52 1011.77 1012.04 1012.27 1012.43 1012.50 1012.50 1012.47 1012.45 1012.51 1012.67 1012.96 1013.36 1013.81 1014.28 1014.72 1015.08 1015.35 1015.55 1015.70 1015.84 1016.00 1016.20 1016.45 1016.74 1017.03 1017.31 1017.57 1017.78 1017.96 1018.12 1018.28 1018.44 1018.61 1018.79 1018.97 1019.12 1019.24 1019.32 1019.36 1019.38 1019.38 1019.37
1011.26 1011.52 1011.78 1012.01 1012.18 1012.26 1012.28 1012.26 1012.26 1012.32 1012.47 1012.73 1013.09 1013.51 1013.95 1014.38 1014.75 1015.05 1015.29 1015.48 1015.67 1015.87 1016.10 1016.37 1016.68 1017.00 1017.31 1017.59 1017.84 1018.05 1018.23 1018.39 1018.54 1018.69 1018.83 1018.97 1019.10 1019.21 1019.30 1019.37 1019.42 1019.46 1019.48
1010.94 1011.19 1011.44 1011.67 1011.84 1011.94 1011.99 1012.00 1012.01 1012.06 1012.19 1012.41 1012.71 1013.09 1013.50 1013.91 1014.30 1014.65 1014.96 1015.23 1015.49 1015.76 1016.04 1016.35 1016.68 1017.01 1017.34 1017.65 1017.93 1018.16 1018.36 1018.53 1018.67 1018.79 1018.89 1018.99 1019.07 1019.15 1019.23 1019.30 1019.36 1019.42 1019.47
1010.62 1010.83 1011.06 1011.27 1011.45 1011.58 1011.65 1011.69 1011.71 1011.76 1011.85 1012.01 1012.25 1012.57 1012.94 1013.34 1013.76 1014.17 1014.57 1014.94 1015.30 1015.65 1015.99 1016.34 1016.70 1017.05 1017.39 1017.71 1018.01 1018.27 1018.49 1018.67 1018.80 1018.90 1018.96 1019.01 1019.04 1019.07 1019.11 1019.16 1019.22 1019.29 1019.35
1010.33 1010.49 1010.68 1010.87 1011.05 1011.20 1011.30 1011.37 1011.41 1011.44 1011.49 1011.59 1011.75 1011.99 1012.32 1012.71 1013.16 1013.64 1014.13 1014.62 1015.08 1015.52 1015.93 1016.32 1016.70 1017.06 1017.40 1017.74 1018.05 1018.33 1018.58 1018.77 1018.91 1018.99 1019.03 1019.03 1019.01 1018.99 1018.98 1018.99 1019.03 1019.09 1019.15
1010.07 1010.18 1010.32 1010.48 1010.66 1010.82 1010.96 1011.05 1011.11 1011.13 1011.14 1011.17 1011.26 1011.43 1011.70 1012.07 1012.54 1013.08 1013.66 1014.25 1014.81 1015.34 1015.82 1016.25 1016.64 1017.00 1017.35 1017.68 1018.01 1018.32 1018.60 1018.82 1018.98 1019.06 1019.08 1019.05 1018.98 1018.91 1018.85 1018.81 1018.82 1018.86 1018.92
1009.83 1009.89 1009.98 1010.12 1010.28 1010.46 1010.63 1010.75 1010.83 1010.85 1010.83 1010.81 1010.82 1010.93 1011.14 1011.49 1011.96 1012.54 1013.18 1013.85 1014.50 1015.10 1015.63 1016.09 1016.49 1016.86 1017.20 1017.54 1017.89 1018.23 1018.54 1018.80 1019.00 1019.10 1019.12 1019.07 1018.96 1018.84 1018.73 1018.65 1018.62 1018.63 1018.68
1009.63 1009.64 1009.68 1009.77 1009.93 1010.11 1010.30 1010.47 1010.57 1010.60 1010.58 1010.52 1010.49 1010.53 1010.69 1011.00 1011.46 1012.06 1012.74 1013.46 1014.17 1014.82 1015.39 1015.86 1016.27 1016.63 1016.98 1017.33 1017.69 1018.06 1018.42 1018.73 1018.97 1019.10 1019.14 1019.08 1018.95 1018.80 1018.64 1018.51 1018.44 1018.42 1018.45
1009.44 1009.41 1009.40 1009.45 1009.58 1009.77 1009.99 1010.19 1010.33 1010.40 1010.39 1010.33 1010.28 1010.28 1010.40 1010.67 1011.10 1011.68 1012.38 1013.12 1013.85 1014.52 1015.10 1015.59 1016.00 1016.36 1016.71 1017.07 1017.45 1017.85 1018.25 1018.61 1018.89 1019.07 1019.13 1019.08 1018.95 1018.77 1018.57 1018.41 1018.29 1018.24 1018.24
1009.29 1009.21 1009.15 1009.16 1009.26 1009.44 1009.67 1009.91 1010.11 1010.24 1010.27 1010.24 1010.19 1010.18 1010.27 1010.51 1010.91 1011.46 1012.13 1012.85 1013.58 1014.25 1014.83 1015.32 1015.73 1016.09 1016.44 1016.80 1017.20 1017.63 1018.06 1018.46 1018.79 1019.01 1019.10 1019.07 1018.94 1018.74 1018.53 1018.33 1018.17 1018.08 1018.05
1009.17 1009.06 1008.95 1008.91 1008.96 1009.12 1009.37 1009.64 1009.90 1010.10 1010.20 1010.23 1010.22 1010.23 1010.31 1010.52 1010.87 1011.38 1012.01 1012.70 1013.39 1014.04 1014.61 1015.09 1015.50 1015.85 1016.20 1016.57 1016.98 1017.42 1017.87 1018.30 1018.65 1018.90 1019.03 1019.02 1018.91 1018.72 1018.49 1018.26 1018.07 1017.94 1017.87
1009.12 1008.97 1008.81 1008.70 1008.70 1008.84 1009.08 1009.39 1009.70 1009.97 1010.16 1010.27 1010.33 1010.37 1010.47 1010.66 1010.99 1011.44 1012.01 1012.65 1013.30 1013.92 1014.46 1014.93 1015.33 1015.68 1016.03 1016.39 1016.79 1017.23 1017.68 1018.12 1018.49 1018.76 1018.91 1018.94 1018.85 1018.67 1018.45 1018.22 1018.00 1017.83 1017.71
Thickness
5784 5785 5783 5781 5778 5777 5776 5774 5773 5772 5771 5769 5767 5767 5765 5763 5762 5760 5759 5758 5757 5757 5757 5757 5756 5756 5755 5755 5754 5753 5752 5751 5750 5748 5748 5747 5745 5744 5743 5743 5742 5741 5740
5787 5785 5782 5779 5777 5775 5774 5772 5770 5769 5768 5766 5765 5764 5762 5760 5759 5757 5756 5755 5754 5754 5754 5754 5753 5753 5753 5752 5752 5751 5750 5749 5748 5746 5745 5744 5743 5742 5741 5740 5739 5739 5738
5785 5783 5780 5777 5775 5773 5771 5769 5767 5766 5765 5763 5762 5760 5759 5757 5756 5755 5753 5752 5752 5751 5751 5751 5751 5750 5750 5749 5748 5748 5747 5746 5745 5744 5743 5741 5741 5740 5739 5739 5738 5737 5736
5783 5780 5777 5774 5772 5770 5768 5767 5765 5763 5761 5760 5758 5757 5756 5754 5753 5752 5751 5750 5749 5748 5748 5747 5747 5746 5746 5745 5745 5745 5744 5744 5743 5741 5740 5739 5739 5738 5737 5736 5736 5735 5734
5780 5777 5774 5772 5770 5768 5765 5764 5762 5760 5758 5756 5755 5754 5752 5751 5750 5749 5748 5747 5746 5745 5745 5744 5743 5742 5742 5742 5741 5742 5741 5741 5741 5739 5738 5737 5736 5736 5735 5735 5733 5733 5732
5776 5774 5772 5770 5767 5765 5762 5760 5758 5756 5754 5752 5751 5750 5749 5747 5746 5745 5745 5744 5743 5743 5742 5741 5739 5739 5738 5738 5738 5738 5739 5738 5738 5737 5736 5735 5734 5734 5733 5733 5732 5731 5730
5772 5771 5768 5766 5764 5761 5759 5757 5755 5753 5751 5750 5748 5747 5746 5745 5744 5742 5742 5741 5740 5740 5739 5738 5737 5736 5736 5736 5735 5735 5735 5736 5735 5734 5734 5733 5732 5732 5732 5731 5730 5729 5728
5769 5766 5764 5763 5761 5758 5756 5754 5752 5750 5748 5747 5745 5743 5742 5741 5740 5739 5738 5738 5737 5736 5736 5735 5735 5734 5733 5733 5733 5733 5733 5733 5733 5733 5732 5731 5731 5730 5730 5729 5729 5728 5727
5765 5762 5760 5759 5757 5755 5753 5751 5749 5747 5745 5744 5742 5741 5739 5737 5737 5736 5735 5734 5733 5733 5732 5732 5732 5731 5731 5730 5731 5731 5731 5731 5730 5730 5730 5729 5729 5728 5728 5727 5726 5726 5725
5760 5758 5756 5754 5753 5751 5749 5747 5745 5743 5742 5740 5739 5737 5736 5734 5733 5732 5732 5731 5730 5729 5729 5729 5729 5729 5728 5728 5728 5728 5729 5728 5727 5727 5727 5727 5727 5726 5726 5725 5725 5724 5723
5756 5754 5752 5750 5748 5747 5746 5745 5742 5740 5738 5737 5735 5734 5732 5730 5730 5729 5728 5728 5727 5727 5726 5726 5725 5725 5725 5725 5725 5725 5726 5725 5725 5725 5725 5725 5725 5724 5724 5724 5723 5722 5722
5751 5751 5750 5747 5746 5744 5743 5742 5739 5736 5735 5733 5732 5730 5728 5727 5726 5725 5725 5724 5724 5724 5723 5722 5722 5722 5722 5722 5722 5722 5722 5722 5722 5722 5722 5723 5723 5722 5722 5721 5720 5720 5720
5750 5749 5747 5745 5743 5741 5739 5738 5735 5733 5731 5730 5728 5726 5725 5723 5722 5721 5720 5720 5720 5719 5719 5719 5718 5718 5718 5718 5718 5718 5719 5719 5719 5719 5720 5720 5720 5719 5719 5718 5718 5717 5717
5747 5746 5744 5743 5741 5738 5736 5734 5732 5729 5728 5726 5725 5723 5721 5719 5718 5717 5716 5716 5715 5715 5714 5714 5714 5714 5714 5714 5714 5714 5715 5715 5715 5716 5717 5717 5717 5716 5716 5716 5715 5715 5715
5744 5742 5741 5740 5737 5736 5733 5730 5728 5726 5725 5723 5721 5719 5718 5716 5715 5714 5712 5712 5711 5710 5710 5709 5709 5709 5709 5710 5710 5710 5711 5711 5712 5712 5713 5714 5714 5714 5713 5713 5712 5712 5711
5742 5740 5738 5737 5735 5733 5730 5728 5726 5723 5721 5719 5718 5716 5714 5713 5711 5710 5708 5707 5706 5706 5705 5705 5704 5704 5704 5704 5705 5706 5706 5707 5707 5708 5709 5710 5711 5711 5711 5711 5710 5709 5709
5740 5738 5736 5735 5732 5730 5727 5724 5722 5719 5717 5715 5714 5712 5710 5709 5707 5705 5703 5702 5702 5701 5700 5700 5699 5699 5699 5699 5699 5700 5701 5702 5703 5704 5705 5706 5707 5707 5707 5707 5707 5707 5707
5739 5736 5734 5733 5730 5726 5723 5720 5718 5715 5713 5711 5709 5707 5705 5704 5703 5701 5699 5698 5697 5696 5695 5694 5693 5692 5692 5692 5693 5694 5696 5696 5697 5699 5700 5701 5702 5703 5704 5704 5704 5704 5704
5737 5734 5732 5729 5726 5723 5720 5717 5714 5712 5709 5706 5704 5703 5701 5700 5698 5696 5694 5693 5692 5690 5689 5688 5687 5686 5685 5685 5686 5688 5689 5690 5692 5693 5694 5696 5697 5699 5700 5700 5701 5701 5701
5735 5732 5729 5726 5724 5721 5717 5713 5710 5707 5704 5702 5699 5698 5697 5695 5693 5691 5689 5688 5687 5685 5683 5682 5680 5680 5679 5679 5681 5682 5683 5684 5686 5687 5689 5691 5692 5694 5695 5696 5696 5697 5697
5731 5728 5725 5722 5720 5717 5713 5709 5705 5702 5699 5697 5695 5694 5692 5690 5688 5687 5685 5683 5682 5680 5678 5676 5675 5673 5672 5673 5672 5673 5675 5677 5679 5681 5683 5685 5687 5689 5690 5691 5692 5692 5693
5728 5726 5722 5720 5717 5713 5710 5706 5703 5699 5696 5694 5692 5690 5689 5686 5684 5683 5681 5679 5678 5675 5673 5671 5669 5667 5667 5666 5665 5664 5664 5667 5671 5675 5676 5679 5681 5682 5684 5685 5686 5687 5688
5725 5722 5721 5717 5714 5711 5707 5703 5699 5695 5692 5689 5687 5686 5685 5683 5681 5680 5678 5675 5673 5671 5669 5667 5665 5663 5661 5660 5660 5658 5656 5657 5660 5665 5668 5671 5673 5675 5676 5678 5680 5681 5682
5723 5721 5718 5715 5711 5708 5704 5699 5695 5690 5686 5685 5683 5682 5681 5680 5678 5676 5674 5672 5669 5667 5665 5663 5662 5659 5657 5655 5654 5654 5655 5655 5653 5654 5659 5662 5665 5666 5668 5671 5673 5675 5676
5721 5717 5714 5710 5707 5703 5700 5696 5691 5687 5684 5682 5680 5678 5676 5675 5674 5672 5670 5667 5665 5663 5661 5659 5657 5655 5653 5651 5650 5649 5649 5648 5648 5647 5649 5652 5655 5658 5661 5663 5665 5667 5669
5717 5713 5709 5706 5702 5699 5695 5692 5688 5684 5681 5678 5676 5673 5672 5670 5669 5668 5666 5663 5661 5659 5657 5655 5653 5651 5650 5648 5647 5646 5645 5644 5643 5642 5643 5645 5647 5650 5653 5655 5657 5660 5662